Hourly Data Report for May 10, 2021

TOBERMORY RCS
ONTARIO
Current Station Operator: ECCC - MSC

45°14'00.000" N
81°38'00.000" W
213.50 m
6128330
71767
TTR

Download Data

Hourly Data (May 2021)
Hourly Data Report for May 10, 2021
TIME
LST
Temp Definition
°C
Dew Point Definition
°C
Rel Hum Definition
%
Precip. Amount Definition
mm

Wind Dir Definition
10's deg

Wind Spd Definition
km/h
Visibility Definition
km
Stn Press Definition
kPa
Hmdx Definition


Wind Chill Definition


Weather Definition


00:00 4.3 3.0 91 0.0 31 7   98.80     LegendNANA
01:00 4.1 3.0 93 0.0 31 7   98.79     LegendNANA
02:00 4.4 3.0 90 0.0 32 7   98.76     LegendNANA
03:00 4.5 2.7 88 0.0 33 10   98.77     LegendNANA
04:00 4.2 2.4 88 0.0 33 9   98.83     LegendNANA
05:00 2.8 1.5 91 0.0 34 4   98.89     LegendNANA
06:00 3.8 2.6 92 0.0 29 6   98.95     LegendNANA
07:00 5.8 3.2 83 0.0 31 9   99.01     LegendNANA
08:00 6.3 2.9 79 0.0 33 13   99.03     LegendNANA
09:00 6.1 2.1 75 0.0 33 15   99.02     LegendNANA
10:00 8.3 3.7 73 0.0 30 15   99.04     LegendNANA
11:00 8.5 3.1 69 0.0 29 14   99.05     LegendNANA
12:00 8.7 2.7 66 0.0 28 20   99.06     LegendNANA
13:00 7.9 2.1 67 0.0 29 24   99.06     LegendNANA
14:00 8.2 1.5 62 0.0 28 23   99.06     LegendNANA
15:00 7.7 1.7 66 0.0 28 22   99.06     LegendNANA
16:00 8.0 1.4 63 0.0 29 23   99.06     LegendNANA
17:00 7.1 0.5 63 0.0 29 22   99.09     LegendNANA
18:00 6.5 0.5 66 0.0 29 22   99.13     LegendNANA
19:00 5.7 1.2 73 0.0 29 19   99.16     LegendNANA
20:00 4.9 1.3 78 0.0 30 14   99.19     LegendNANA
21:00 4.7 1.8 82 0.0 31 10   99.21     LegendNANA
22:00 4.1 1.9 85 0.0 30 12   99.23     LegendNANA
23:00 3.9 2.0 87 0.0 30 11   99.22     LegendNANA

Notes on Data Quality.

Legend

  • E = Estimated
  • M = Missing
  • NA = Not Available*
  • [empty] = Indicates an unobserved value
Date modified: